Terminal Aerodrome Forecast
Issued by NWS Tampa Bay Area, FL

Home | Current Version | Previous Version | Text Only | Print | Product List | Glossary On
Versions: 1 2 3 4 5 6 7 8 9 10 11 12 13 14 15
876
FTUS42 KTBW 041746
TAFFMY
TAF
KFMY 041746Z 0418/0518 14012KT P6SM SCT030 SCT250
     FM042000 14007KT P6SM BKN040
     FM050700 12005KT 4SM BR BKN012
     FM051500 16009KT P6SM SCT015 BKN030=

USA.gov is the U.S. government's official web portal to all federal, state and local government web resources and services.